User: anonymous   Login
Location: Unspecified
(0.0000°N, 0.0000°E)
Time: 04:53:30
(UTC+00:00)
Language:

Kyokko - Orbit

View from above orbital plane
View from above orbital plane
View from above satellite
View from above satellite

Ground track
Ground track

The orbit data is extracted from the following two-line orbital elements,

1 10664U 78014A   18343.61363037 -.00000062 +00000-0 -26628-4 0  9993
2 10664 065.3659 159.9453 1910217 321.0488 026.6884 10.75479394587380
Epoch (UTC): 09 December 2018 14:43:37
Eccentricity: 0.1910217
inclination: 65.3659°
perigee height: 635 km
apogee height: 3947 km
right ascension of ascending node: 159.9453°
argument of perigee: 321.0488°
revolutions per day: 10.75479394
mean anomaly at epoch: 26.6884°
orbit number at epoch: 58738

The dashed part of the orbit path shows where the satellite is in the earth's shadow,  

DLR